Location: Eurasberg
(48.3353°N, 11.0839°E)
Time: 15:07:00
(UTC+00:00)

SL-23 DEB - Visible Passes

Search period start: 19 April 2026 00:00
Search period end: 29 April 2026 00:00
Orbit: 423 x 3431 km, 51.4° (Epoch: 18 April)

Date Brightness Start Highest point End Pass type
(mag) Time Alt. Az. Time Alt. Az. Time Alt. Az.
19 Apr 8.5 03:18:00 10° S 03:31:49 37° ESE 03:48:57 10° ENE visible
20 Apr 8.6 02:19:18 10° SSE 02:30:39 24° ESE 02:44:23 10° ENE visible
21 Apr 8.8 01:23:27 10° ESE 01:30:05 14° E 01:37:28 10° ENE visible
21 Apr 8.3 03:24:11 10° S 03:38:39 46° ESE 03:57:16 10° ENE visible
22 Apr 8.3 02:24:29 10° S 02:37:06 33° ESE 02:53:15 10° ENE visible
23 Apr 8.5 01:26:19 10° SE 01:36:11 21° ESE 01:48:11 10° ENE visible
23 Apr 8.1 03:30:49 10° SSW 03:45:43 57° SE 04:05:23 10° ENE visible
24 Apr 8.7 00:33:29 10° ESE 00:35:49 10° E 00:38:15 10° E visible
24 Apr 8.2 02:30:25 10° S 02:43:46 42° ESE 03:01:38 10° ENE visible
25 Apr 8.2 01:31:05 10° SSE 01:42:27 29° ESE 01:57:18 10° ENE visible
26 Apr 8.4 00:33:39 10° SE 00:41:46 17° E 00:51:32 10° ENE visible
26 Apr 7.9 02:36:52 10° SSW 02:50:39 52° SE 03:09:46 10° ENE visible
27 Apr 8.0 01:37:15 12° S 01:48:57 38° ESE 02:05:48 10° ENE visible
28 Apr 8.1 00:38:16 11° SSE 00:47:53 25° ESE 01:01:05 10° ENE visible
28 Apr 7.7 02:43:48 10° SSW 02:57:47 63° SE 03:17:47 10° ENE visible
28 Apr 8.4 23:41:35 10° ESE 23:47:25 13° E 23:54:10 10° ENE visible
